Year,Month,Day,Hour,Minute,Value (Times are PST for temperature in C)
2017,05,07,00,00,4.40
2017,05,07,00,01,4.40
2017,05,07,00,02,4.40
2017,05,07,00,03,4.40
2017,05,07,00,04,4.30
2017,05,07,00,05,4.30
2017,05,07,00,06,4.30
2017,05,07,00,07,4.30
2017,05,07,00,08,4.30
2017,05,07,00,09,4.20
2017,05,07,00,10,4.20
2017,05,07,00,11,4.20
2017,05,07,00,12,4.20
2017,05,07,00,13,4.10
2017,05,07,00,14,4.10
2017,05,07,00,15,4.10
2017,05,07,00,16,4.10
2017,05,07,00,17,4.10
2017,05,07,00,18,4.10
2017,05,07,00,19,4.10
2017,05,07,00,20,4.10
2017,05,07,00,21,4.10
2017,05,07,00,22,4.10
2017,05,07,00,23,4.10
2017,05,07,00,24,4.10
2017,05,07,00,25,4.10
2017,05,07,00,26,4.10
2017,05,07,00,27,4.10
2017,05,07,00,28,4.10
2017,05,07,00,29,4.10
2017,05,07,00,30,4.00
2017,05,07,00,31,4.00
2017,05,07,00,32,3.90
2017,05,07,00,33,3.90
2017,05,07,00,34,3.90
2017,05,07,00,35,3.90
2017,05,07,00,36,3.80
2017,05,07,00,37,3.80
2017,05,07,00,38,3.80
2017,05,07,00,39,3.80
2017,05,07,00,40,3.80
2017,05,07,00,41,3.70
2017,05,07,00,42,3.70
2017,05,07,00,43,3.70
2017,05,07,00,44,3.70
2017,05,07,00,45,3.70
2017,05,07,00,46,3.70
2017,05,07,00,47,3.70
2017,05,07,00,48,3.70
2017,05,07,00,49,3.70
2017,05,07,00,50,3.70
2017,05,07,00,51,3.70
2017,05,07,00,52,3.70
2017,05,07,00,53,3.70
2017,05,07,00,54,3.70
2017,05,07,00,55,3.70
2017,05,07,00,56,3.70
2017,05,07,00,57,3.70
2017,05,07,00,58,3.70
2017,05,07,00,59,3.70
2017,05,07,01,00,3.80
2017,05,07,01,01,3.80
2017,05,07,01,02,3.80
2017,05,07,01,03,3.80
2017,05,07,01,04,3.80
2017,05,07,01,05,3.70
2017,05,07,01,06,3.70
2017,05,07,01,07,3.70
2017,05,07,01,08,3.70
2017,05,07,01,09,3.70
2017,05,07,01,10,3.70
2017,05,07,01,11,3.60
2017,05,07,01,12,3.60
2017,05,07,01,13,3.60
2017,05,07,01,14,3.60
2017,05,07,01,15,3.60
2017,05,07,01,16,3.60
2017,05,07,01,17,3.60
2017,05,07,01,18,3.50
2017,05,07,01,19,3.50
2017,05,07,01,20,3.50
2017,05,07,01,21,3.50
2017,05,07,01,22,3.40
2017,05,07,01,23,3.40
2017,05,07,01,24,3.40
2017,05,07,01,25,3.40
2017,05,07,01,26,3.40
2017,05,07,01,27,3.30
2017,05,07,01,28,3.30
2017,05,07,01,29,3.30
2017,05,07,01,30,3.30
2017,05,07,01,31,3.30
2017,05,07,01,32,3.30
2017,05,07,01,33,3.30
2017,05,07,01,34,3.30
2017,05,07,01,35,3.30
2017,05,07,01,36,3.30
2017,05,07,01,37,3.30
2017,05,07,01,38,3.30
2017,05,07,01,39,3.30
2017,05,07,01,40,3.30
2017,05,07,01,41,3.30
2017,05,07,01,42,3.30
2017,05,07,01,43,3.30
2017,05,07,01,44,3.30
2017,05,07,01,45,3.30
2017,05,07,01,46,3.40
2017,05,07,01,47,3.50
2017,05,07,01,48,3.50
2017,05,07,01,49,3.50
2017,05,07,01,50,3.50
2017,05,07,01,51,3.50
2017,05,07,01,52,3.60
2017,05,07,01,53,3.60
2017,05,07,01,54,3.60
2017,05,07,01,55,3.50
2017,05,07,01,56,3.50
2017,05,07,01,57,3.50
2017,05,07,01,58,3.40
2017,05,07,01,59,3.40
2017,05,07,02,00,3.40
2017,05,07,02,01,3.40
2017,05,07,02,02,3.40
2017,05,07,02,03,3.40
2017,05,07,02,04,3.50
2017,05,07,02,05,3.50
2017,05,07,02,06,3.50
2017,05,07,02,07,3.50
2017,05,07,02,08,3.40
2017,05,07,02,09,3.40
2017,05,07,02,10,3.40
2017,05,07,02,11,3.40
2017,05,07,02,12,3.40
2017,05,07,02,13,3.40
2017,05,07,02,14,3.30
2017,05,07,02,15,3.30
2017,05,07,02,16,3.30
2017,05,07,02,17,3.30
2017,05,07,02,18,3.30
2017,05,07,02,19,3.20
2017,05,07,02,20,3.20
2017,05,07,02,21,3.20
2017,05,07,02,22,3.20
2017,05,07,02,23,3.20
2017,05,07,02,24,3.20
2017,05,07,02,25,3.20
2017,05,07,02,26,3.20
2017,05,07,02,27,3.20
2017,05,07,02,28,3.20
2017,05,07,02,29,3.20
2017,05,07,02,30,3.20
2017,05,07,02,31,3.10
2017,05,07,02,32,3.10
2017,05,07,02,33,3.10
2017,05,07,02,34,3.10
2017,05,07,02,35,3.10
2017,05,07,02,36,3.10
2017,05,07,02,37,3.10
2017,05,07,02,38,3.10
2017,05,07,02,39,3.10
2017,05,07,02,40,3.10
2017,05,07,02,41,3.10
2017,05,07,02,42,3.00
2017,05,07,02,43,3.00
2017,05,07,02,44,3.00
2017,05,07,02,45,3.00
2017,05,07,02,46,3.00
2017,05,07,02,47,3.00
2017,05,07,02,48,3.00
2017,05,07,02,49,2.90
2017,05,07,02,50,2.90
2017,05,07,02,51,2.90
2017,05,07,02,52,2.90
2017,05,07,02,53,2.90
2017,05,07,02,54,2.90
2017,05,07,02,55,2.90
2017,05,07,02,56,2.90
2017,05,07,02,57,2.90
2017,05,07,02,58,2.90
2017,05,07,02,59,2.90
2017,05,07,03,00,2.90
2017,05,07,03,01,2.90
2017,05,07,03,02,2.90
2017,05,07,03,03,2.90
2017,05,07,03,04,2.90
2017,05,07,03,05,2.90
2017,05,07,03,06,2.90
2017,05,07,03,07,2.90
2017,05,07,03,08,2.90
2017,05,07,03,09,2.90
2017,05,07,03,10,2.90
2017,05,07,03,11,2.90
2017,05,07,03,12,2.90
2017,05,07,03,13,2.90
2017,05,07,03,14,2.80
2017,05,07,03,15,2.80
2017,05,07,03,16,2.80
2017,05,07,03,17,2.80
2017,05,07,03,18,2.80
2017,05,07,03,19,2.80
2017,05,07,03,20,2.80
2017,05,07,03,21,2.80
2017,05,07,03,22,2.80
2017,05,07,03,23,2.80
2017,05,07,03,24,2.70
2017,05,07,03,25,2.70
2017,05,07,03,26,2.70
2017,05,07,03,27,2.70
2017,05,07,03,28,2.80
2017,05,07,03,29,2.80
2017,05,07,03,30,2.80
2017,05,07,03,31,2.80
2017,05,07,03,32,2.90
2017,05,07,03,33,2.90
2017,05,07,03,34,2.90
2017,05,07,03,35,2.90
2017,05,07,03,36,3.00
2017,05,07,03,37,3.10
2017,05,07,03,38,3.10
2017,05,07,03,39,3.10
2017,05,07,03,40,3.10
2017,05,07,03,41,3.10
2017,05,07,03,42,3.10
2017,05,07,03,43,3.00
2017,05,07,03,44,3.00
2017,05,07,03,45,3.00
2017,05,07,03,46,3.00
2017,05,07,03,47,3.00
2017,05,07,03,48,3.00
2017,05,07,03,49,3.00
2017,05,07,03,50,3.00
2017,05,07,03,51,3.00
2017,05,07,03,52,3.00
2017,05,07,03,53,3.00
2017,05,07,03,54,2.90
2017,05,07,03,55,2.90
2017,05,07,03,56,2.90
2017,05,07,03,57,2.90
2017,05,07,03,58,2.90
2017,05,07,03,59,2.90
2017,05,07,04,00,2.80
2017,05,07,04,01,2.80
2017,05,07,04,02,2.80
2017,05,07,04,03,2.70
2017,05,07,04,04,2.70
2017,05,07,04,05,2.70
2017,05,07,04,06,2.70
2017,05,07,04,07,2.70
2017,05,07,04,08,2.60
2017,05,07,04,09,2.70
2017,05,07,04,10,2.70
2017,05,07,04,11,2.70
2017,05,07,04,12,2.70
2017,05,07,04,13,2.70
2017,05,07,04,14,2.70
2017,05,07,04,15,2.60
2017,05,07,04,16,2.60
2017,05,07,04,17,2.60
2017,05,07,04,18,2.60
2017,05,07,04,19,2.60
2017,05,07,04,20,2.60
2017,05,07,04,21,2.60
2017,05,07,04,22,2.60
2017,05,07,04,23,2.60
2017,05,07,04,24,2.50
2017,05,07,04,25,2.50
2017,05,07,04,26,2.50
2017,05,07,04,27,2.50
2017,05,07,04,28,2.50
2017,05,07,04,29,2.50
2017,05,07,04,30,2.60
2017,05,07,04,31,2.60
2017,05,07,04,32,2.60
2017,05,07,04,33,2.60
2017,05,07,04,34,2.60
2017,05,07,04,35,2.60
2017,05,07,04,36,2.60
2017,05,07,04,37,2.60
2017,05,07,04,38,2.70
2017,05,07,04,39,2.70
2017,05,07,04,40,2.70
2017,05,07,04,41,2.70
2017,05,07,04,42,2.70
2017,05,07,04,43,2.70
2017,05,07,04,44,2.70
2017,05,07,04,45,2.70
2017,05,07,04,46,2.70
2017,05,07,04,47,2.70
2017,05,07,04,48,2.70
2017,05,07,04,49,2.70
2017,05,07,04,50,2.60
2017,05,07,04,51,2.60
2017,05,07,04,52,2.60
2017,05,07,04,53,2.60
2017,05,07,04,54,2.60
2017,05,07,04,55,2.50
2017,05,07,04,56,2.50
2017,05,07,04,57,2.40
2017,05,07,04,58,2.40
2017,05,07,04,59,2.40
2017,05,07,05,00,2.40
2017,05,07,05,01,2.30
2017,05,07,05,02,2.30
2017,05,07,05,03,2.30
2017,05,07,05,04,2.30
2017,05,07,05,05,2.40
2017,05,07,05,06,2.40
2017,05,07,05,07,2.40
2017,05,07,05,08,2.40
2017,05,07,05,09,2.40
2017,05,07,05,10,2.40
2017,05,07,05,11,2.50
2017,05,07,05,12,2.60
2017,05,07,05,13,2.60
2017,05,07,05,14,2.70
2017,05,07,05,15,2.70
2017,05,07,05,16,2.70
2017,05,07,05,17,2.70
2017,05,07,05,18,2.70
2017,05,07,05,19,2.60
2017,05,07,05,20,2.60
2017,05,07,05,21,2.60
2017,05,07,05,22,2.50
2017,05,07,05,23,2.50
2017,05,07,05,24,2.50
2017,05,07,05,25,2.50
2017,05,07,05,26,2.40
2017,05,07,05,27,2.40
2017,05,07,05,28,2.40
2017,05,07,05,29,2.40
2017,05,07,05,30,2.40
2017,05,07,05,31,2.40
2017,05,07,05,32,2.40
2017,05,07,05,33,2.40
2017,05,07,05,34,2.40
2017,05,07,05,35,2.40
2017,05,07,05,36,2.40
2017,05,07,05,37,2.30
2017,05,07,05,38,2.30
2017,05,07,05,39,2.30
2017,05,07,05,40,2.30
2017,05,07,05,41,2.30
2017,05,07,05,42,2.30
2017,05,07,05,43,2.30
2017,05,07,05,44,2.30
2017,05,07,05,45,2.30
2017,05,07,05,46,2.40
2017,05,07,05,47,2.40
2017,05,07,05,48,2.50
2017,05,07,05,49,2.50
2017,05,07,05,50,2.50
2017,05,07,05,51,2.60
2017,05,07,05,52,2.60
2017,05,07,05,53,2.60
2017,05,07,05,54,2.60
2017,05,07,05,55,2.60
2017,05,07,05,56,2.70
2017,05,07,05,57,2.70
2017,05,07,05,58,2.70
2017,05,07,05,59,2.80
2017,05,07,06,00,2.80
2017,05,07,06,01,2.80
2017,05,07,06,02,2.80
2017,05,07,06,03,2.80
2017,05,07,06,04,2.80
2017,05,07,06,05,2.80
2017,05,07,06,06,2.80
2017,05,07,06,07,2.80
2017,05,07,06,08,2.70
2017,05,07,06,09,2.70
2017,05,07,06,10,2.70
2017,05,07,06,11,2.70
2017,05,07,06,12,2.60
2017,05,07,06,13,2.60
2017,05,07,06,14,2.60
2017,05,07,06,15,2.60
2017,05,07,06,16,2.60
2017,05,07,06,17,2.60
2017,05,07,06,18,2.60
2017,05,07,06,19,2.50
2017,05,07,06,20,2.50
2017,05,07,06,21,2.50
2017,05,07,06,22,2.50
2017,05,07,06,23,2.60
2017,05,07,06,24,2.60
2017,05,07,06,25,2.60
2017,05,07,06,26,2.60
2017,05,07,06,27,2.60
2017,05,07,06,28,2.60
2017,05,07,06,29,2.60
2017,05,07,06,30,2.60
2017,05,07,06,31,2.60
2017,05,07,06,32,2.60
2017,05,07,06,33,2.60
2017,05,07,06,34,2.60
2017,05,07,06,35,2.60
2017,05,07,06,36,2.60
2017,05,07,06,37,2.60
2017,05,07,06,38,2.60
2017,05,07,06,39,2.60
2017,05,07,06,40,2.70
2017,05,07,06,41,2.70
2017,05,07,06,42,2.70
2017,05,07,06,43,2.70
2017,05,07,06,44,2.70
2017,05,07,06,45,2.70
2017,05,07,06,46,2.70
2017,05,07,06,47,2.70
2017,05,07,06,48,2.80
2017,05,07,06,49,2.80
2017,05,07,06,50,2.80
2017,05,07,06,51,2.80
2017,05,07,06,52,2.90
2017,05,07,06,53,2.90
2017,05,07,06,54,3.00
2017,05,07,06,55,3.00
2017,05,07,06,56,3.00
2017,05,07,06,57,3.00
2017,05,07,06,58,3.10
2017,05,07,06,59,3.10
2017,05,07,07,00,3.10
2017,05,07,07,01,3.20
2017,05,07,07,02,3.20
2017,05,07,07,03,3.20
2017,05,07,07,04,3.20
2017,05,07,07,05,3.20
2017,05,07,07,06,3.30
2017,05,07,07,07,3.30
2017,05,07,07,08,3.30
2017,05,07,07,09,3.30
2017,05,07,07,10,3.40
2017,05,07,07,11,3.40
2017,05,07,07,12,3.50
2017,05,07,07,13,3.50
2017,05,07,07,14,3.50
2017,05,07,07,15,3.60
2017,05,07,07,16,3.60
2017,05,07,07,17,3.60
2017,05,07,07,18,3.70
2017,05,07,07,19,3.70
2017,05,07,07,20,3.70
2017,05,07,07,21,3.70
2017,05,07,07,22,3.70
2017,05,07,07,23,3.70
2017,05,07,07,24,3.70
2017,05,07,07,25,3.70
2017,05,07,07,26,3.80
2017,05,07,07,27,3.80
2017,05,07,07,28,3.80
2017,05,07,07,29,3.80
2017,05,07,07,30,3.80
2017,05,07,07,31,3.80
2017,05,07,07,32,3.80
2017,05,07,07,33,3.90
2017,05,07,07,34,3.90
2017,05,07,07,35,3.90
2017,05,07,07,36,4.00
2017,05,07,07,37,4.00
2017,05,07,07,38,4.00
2017,05,07,07,39,4.00
2017,05,07,07,40,4.00
2017,05,07,07,41,4.10
2017,05,07,07,42,4.10
2017,05,07,07,43,4.10
2017,05,07,07,44,4.20
2017,05,07,07,45,4.20
2017,05,07,07,46,4.30
2017,05,07,07,47,4.30
2017,05,07,07,48,4.40
2017,05,07,07,49,4.50
2017,05,07,07,50,4.60
2017,05,07,07,51,4.70
2017,05,07,07,52,4.80
2017,05,07,07,53,4.80
2017,05,07,07,54,4.90
2017,05,07,07,55,4.90
2017,05,07,07,56,4.90
2017,05,07,07,57,5.00
2017,05,07,07,58,5.00
2017,05,07,07,59,5.10
2017,05,07,08,00,5.10
2017,05,07,08,01,5.20
2017,05,07,08,02,5.20
2017,05,07,08,03,5.20
2017,05,07,08,04,5.30
2017,05,07,08,05,5.30
2017,05,07,08,06,5.30
2017,05,07,08,07,5.30
2017,05,07,08,08,5.30
2017,05,07,08,09,5.40
2017,05,07,08,10,5.40
2017,05,07,08,11,5.40
2017,05,07,08,12,5.50
2017,05,07,08,13,5.60
2017,05,07,08,14,5.60
2017,05,07,08,15,5.60
2017,05,07,08,16,5.70
2017,05,07,08,17,5.70
2017,05,07,08,18,5.70
2017,05,07,08,19,5.70
2017,05,07,08,20,5.70
2017,05,07,08,21,5.80
2017,05,07,08,22,5.80
2017,05,07,08,23,5.80
2017,05,07,08,24,5.80
2017,05,07,08,25,5.90
2017,05,07,08,26,5.90
2017,05,07,08,27,5.90
2017,05,07,08,28,5.90
2017,05,07,08,29,6.00
2017,05,07,08,30,6.00
2017,05,07,08,31,6.00
2017,05,07,08,32,6.10
2017,05,07,08,33,6.10
2017,05,07,08,34,6.20
2017,05,07,08,35,6.20
2017,05,07,08,36,6.20
2017,05,07,08,37,6.20
2017,05,07,08,38,6.30
2017,05,07,08,39,6.30
2017,05,07,08,40,6.30
2017,05,07,08,41,6.40
2017,05,07,08,42,6.40
2017,05,07,08,43,6.40
2017,05,07,08,44,6.50
2017,05,07,08,45,6.50
2017,05,07,08,46,6.60
2017,05,07,08,47,6.70
2017,05,07,08,48,6.70
2017,05,07,08,49,6.80
2017,05,07,08,50,6.90
2017,05,07,08,51,7.00
2017,05,07,08,52,7.00
2017,05,07,08,53,7.10
2017,05,07,08,54,7.20
2017,05,07,08,55,7.30
2017,05,07,08,56,7.50
2017,05,07,08,57,7.50
2017,05,07,08,58,7.60
2017,05,07,08,59,7.70
2017,05,07,09,00,7.80
2017,05,07,09,01,7.80
2017,05,07,09,02,7.90
2017,05,07,09,03,7.90
2017,05,07,09,04,8.00
2017,05,07,09,05,8.10
2017,05,07,09,06,8.10
2017,05,07,09,07,8.20
2017,05,07,09,08,8.30
2017,05,07,09,09,8.40
2017,05,07,09,10,8.40
2017,05,07,09,11,8.50
2017,05,07,09,12,8.60
2017,05,07,09,13,8.60
2017,05,07,09,14,8.60
2017,05,07,09,15,8.60
2017,05,07,09,16,8.60
2017,05,07,09,17,8.60
2017,05,07,09,18,8.60
2017,05,07,09,19,8.60
2017,05,07,09,20,8.70
2017,05,07,09,21,8.70
2017,05,07,09,22,8.70
2017,05,07,09,23,8.70
2017,05,07,09,24,8.80
2017,05,07,09,25,8.80
2017,05,07,09,26,8.80
2017,05,07,09,27,8.90
2017,05,07,09,28,8.90
2017,05,07,09,29,8.90
2017,05,07,09,30,8.90
2017,05,07,09,31,9.00
2017,05,07,09,32,9.00
2017,05,07,09,33,9.00
2017,05,07,09,34,9.00
2017,05,07,09,35,9.00
2017,05,07,09,36,9.00
2017,05,07,09,37,9.00
2017,05,07,09,38,9.00
2017,05,07,09,39,8.90
2017,05,07,09,40,8.90
2017,05,07,09,41,8.90
2017,05,07,09,42,8.80
2017,05,07,09,43,8.80
2017,05,07,09,44,8.80
2017,05,07,09,45,8.80
2017,05,07,09,46,8.80
2017,05,07,09,47,8.80
2017,05,07,09,48,8.80
2017,05,07,09,49,8.80
2017,05,07,09,50,8.80
2017,05,07,09,51,8.90
2017,05,07,09,52,8.90
2017,05,07,09,53,8.90
2017,05,07,09,54,8.90
2017,05,07,09,55,8.90
2017,05,07,09,56,8.90
2017,05,07,09,57,9.00
2017,05,07,09,58,9.00
2017,05,07,09,59,9.00
2017,05,07,10,00,9.00
2017,05,07,10,01,9.00
2017,05,07,10,02,9.00
2017,05,07,10,03,9.00
2017,05,07,10,04,9.10
2017,05,07,10,05,9.20
2017,05,07,10,06,9.30
2017,05,07,10,07,9.40
2017,05,07,10,08,9.40
2017,05,07,10,09,9.50
2017,05,07,10,10,9.50
2017,05,07,10,11,9.60
2017,05,07,10,12,9.70
2017,05,07,10,13,9.80
2017,05,07,10,14,9.80
2017,05,07,10,15,9.80
2017,05,07,10,16,9.80
2017,05,07,10,17,9.80
2017,05,07,10,18,9.80
2017,05,07,10,19,9.80
2017,05,07,10,20,9.80
2017,05,07,10,21,9.90
2017,05,07,10,22,9.90
2017,05,07,10,23,10.00
2017,05,07,10,24,10.00
2017,05,07,10,25,10.00
2017,05,07,10,26,10.10
2017,05,07,10,27,10.10
2017,05,07,10,28,10.20
2017,05,07,10,29,10.10
2017,05,07,10,30,10.10
2017,05,07,10,31,10.00
2017,05,07,10,32,10.00
2017,05,07,10,33,10.00
2017,05,07,10,34,10.00
2017,05,07,10,35,10.00
2017,05,07,10,36,9.90
2017,05,07,10,37,9.90
2017,05,07,10,38,9.90
2017,05,07,10,39,9.90
2017,05,07,10,40,10.00
2017,05,07,10,41,10.00
2017,05,07,10,42,10.00
2017,05,07,10,43,10.00
2017,05,07,10,44,10.10
2017,05,07,10,45,10.10
2017,05,07,10,46,10.10
2017,05,07,10,47,10.20
2017,05,07,10,48,10.20
2017,05,07,10,49,10.20
2017,05,07,10,50,10.30
2017,05,07,10,51,10.40
2017,05,07,10,52,10.50
2017,05,07,10,53,10.60
2017,05,07,10,54,10.70
2017,05,07,10,55,10.90
2017,05,07,10,56,11.00
2017,05,07,10,57,11.10
2017,05,07,10,58,11.10
2017,05,07,10,59,11.10
2017,05,07,11,00,11.10
2017,05,07,11,01,11.10
2017,05,07,11,02,11.20
2017,05,07,11,03,11.20
2017,05,07,11,04,11.20
2017,05,07,11,05,11.20
2017,05,07,11,06,11.20
2017,05,07,11,07,11.20
2017,05,07,11,08,11.20
2017,05,07,11,09,11.30
2017,05,07,11,10,11.40
2017,05,07,11,11,11.40
2017,05,07,11,12,11.40
2017,05,07,11,13,11.40
2017,05,07,11,14,11.40
2017,05,07,11,15,11.30
2017,05,07,11,16,11.40
2017,05,07,11,17,11.40
2017,05,07,11,18,11.40
2017,05,07,11,19,11.50
2017,05,07,11,20,11.60
2017,05,07,11,21,11.60
2017,05,07,11,22,11.60
2017,05,07,11,23,11.60
2017,05,07,11,24,11.50
2017,05,07,11,25,11.50
2017,05,07,11,26,11.40
2017,05,07,11,27,11.40
2017,05,07,11,28,11.40
2017,05,07,11,29,11.40
2017,05,07,11,30,11.40
2017,05,07,11,31,11.40
2017,05,07,11,32,11.50
2017,05,07,11,33,11.50
2017,05,07,11,34,11.60
2017,05,07,11,35,11.70
2017,05,07,11,36,11.70
2017,05,07,11,37,11.70
2017,05,07,11,38,11.70
2017,05,07,11,39,11.70
2017,05,07,11,40,11.70
2017,05,07,11,41,11.70
2017,05,07,11,42,11.70
2017,05,07,11,43,11.70
2017,05,07,11,44,11.60
2017,05,07,11,45,11.60
2017,05,07,11,46,11.60
2017,05,07,11,47,11.60
2017,05,07,11,48,11.60
2017,05,07,11,49,11.60
2017,05,07,11,50,11.70
2017,05,07,11,51,11.70
2017,05,07,11,52,11.60
2017,05,07,11,53,11.60
2017,05,07,11,54,11.50
2017,05,07,11,55,11.50
2017,05,07,11,56,11.50
2017,05,07,11,57,11.50
2017,05,07,11,58,11.60
2017,05,07,11,59,11.60
2017,05,07,12,00,11.60
2017,05,07,12,01,11.70
2017,05,07,12,02,11.70
2017,05,07,12,03,11.70
2017,05,07,12,04,11.70
2017,05,07,12,05,11.70
2017,05,07,12,06,11.80
2017,05,07,12,07,11.80
2017,05,07,12,08,11.80
2017,05,07,12,09,11.80
2017,05,07,12,10,11.80
2017,05,07,12,11,11.80
2017,05,07,12,12,11.90
2017,05,07,12,13,11.90
2017,05,07,12,14,11.90
2017,05,07,12,15,12.00
2017,05,07,12,16,12.00
2017,05,07,12,17,12.00
2017,05,07,12,18,12.10
2017,05,07,12,19,12.10
2017,05,07,12,20,12.20
2017,05,07,12,21,12.30
2017,05,07,12,22,12.30
2017,05,07,12,23,12.40
2017,05,07,12,24,12.40
2017,05,07,12,25,12.40
2017,05,07,12,26,12.40
2017,05,07,12,27,12.50
2017,05,07,12,28,12.50
2017,05,07,12,29,12.60
2017,05,07,12,30,12.60
2017,05,07,12,31,12.70
2017,05,07,12,32,12.70
2017,05,07,12,33,12.70
2017,05,07,12,34,12.70
2017,05,07,12,35,12.70
2017,05,07,12,36,12.70
2017,05,07,12,37,12.70
2017,05,07,12,38,12.70
2017,05,07,12,39,12.60
2017,05,07,12,40,12.60
2017,05,07,12,41,12.50
2017,05,07,12,42,12.40
2017,05,07,12,43,12.30
2017,05,07,12,44,12.30
2017,05,07,12,45,12.30
2017,05,07,12,46,12.30
2017,05,07,12,47,12.30
2017,05,07,12,48,12.30
2017,05,07,12,49,12.40
2017,05,07,12,50,12.40
2017,05,07,12,51,12.50
2017,05,07,12,52,12.60
2017,05,07,12,53,12.60
2017,05,07,12,54,12.70
2017,05,07,12,55,12.80
2017,05,07,12,56,12.80
2017,05,07,12,57,12.90
2017,05,07,12,58,12.90
2017,05,07,12,59,12.90
2017,05,07,13,00,12.90
2017,05,07,13,01,12.90
2017,05,07,13,02,12.90
2017,05,07,13,03,12.90
2017,05,07,13,04,12.80
2017,05,07,13,05,12.90
2017,05,07,13,06,12.90
2017,05,07,13,07,12.90
2017,05,07,13,08,12.80
2017,05,07,13,09,12.80
2017,05,07,13,10,12.80
2017,05,07,13,11,12.90
2017,05,07,13,12,12.90
2017,05,07,13,13,12.90
2017,05,07,13,14,12.90
2017,05,07,13,15,12.90
2017,05,07,13,16,12.90
2017,05,07,13,17,12.90
2017,05,07,13,18,12.90
2017,05,07,13,19,13.00
2017,05,07,13,20,13.00
2017,05,07,13,21,13.00
2017,05,07,13,22,13.10
2017,05,07,13,23,13.10
2017,05,07,13,24,13.10
2017,05,07,13,25,13.20
2017,05,07,13,26,13.20
2017,05,07,13,27,13.30
2017,05,07,13,28,13.30
2017,05,07,13,29,13.30
2017,05,07,13,30,13.20
2017,05,07,13,31,13.20
2017,05,07,13,32,13.30
2017,05,07,13,33,13.40
2017,05,07,13,34,13.40
2017,05,07,13,35,13.40
2017,05,07,13,36,13.50
2017,05,07,13,37,13.60
2017,05,07,13,38,13.60
2017,05,07,13,39,13.70
2017,05,07,13,40,13.80
2017,05,07,13,41,13.90
2017,05,07,13,42,14.10
2017,05,07,13,43,14.20
2017,05,07,13,44,14.30
2017,05,07,13,45,14.30
2017,05,07,13,46,14.40
2017,05,07,13,47,14.40
2017,05,07,13,48,14.40
2017,05,07,13,49,14.30
2017,05,07,13,50,14.30
2017,05,07,13,51,14.20
2017,05,07,13,52,14.10
2017,05,07,13,53,14.10
2017,05,07,13,54,14.10
2017,05,07,13,55,14.10
2017,05,07,13,56,14.10
2017,05,07,13,57,14.00
2017,05,07,13,58,14.00
2017,05,07,13,59,14.10
2017,05,07,14,00,14.00
2017,05,07,14,01,14.10
2017,05,07,14,02,14.10
2017,05,07,14,03,14.10
2017,05,07,14,04,14.10
2017,05,07,14,05,14.10
2017,05,07,14,06,14.10
2017,05,07,14,07,14.10
2017,05,07,14,08,14.10
2017,05,07,14,09,14.00
2017,05,07,14,10,14.00
2017,05,07,14,11,14.00
2017,05,07,14,12,14.10
2017,05,07,14,13,14.10
2017,05,07,14,14,14.10
2017,05,07,14,15,14.10
2017,05,07,14,16,14.10
2017,05,07,14,17,14.10
2017,05,07,14,18,14.10
2017,05,07,14,19,14.20
2017,05,07,14,20,14.20
2017,05,07,14,21,14.30
2017,05,07,14,22,14.30
2017,05,07,14,23,14.30
2017,05,07,14,24,14.30
2017,05,07,14,25,14.30
2017,05,07,14,26,14.30
2017,05,07,14,27,14.30
2017,05,07,14,28,14.30
2017,05,07,14,29,14.30
2017,05,07,14,30,14.40
2017,05,07,14,31,14.40
2017,05,07,14,32,14.40
2017,05,07,14,33,14.40
2017,05,07,14,34,14.40
2017,05,07,14,35,14.40
2017,05,07,14,36,14.40
2017,05,07,14,37,14.50
2017,05,07,14,38,14.50
2017,05,07,14,39,14.60
2017,05,07,14,40,14.70
2017,05,07,14,41,14.80
2017,05,07,14,42,14.80
2017,05,07,14,43,14.80
2017,05,07,14,44,14.80
2017,05,07,14,45,14.80
2017,05,07,14,46,14.80
2017,05,07,14,47,14.80
2017,05,07,14,48,14.80
2017,05,07,14,49,14.80
2017,05,07,14,50,14.80
2017,05,07,14,51,14.80
2017,05,07,14,52,14.80
2017,05,07,14,53,14.80
2017,05,07,14,54,14.80
2017,05,07,14,55,14.80
2017,05,07,14,56,14.80
2017,05,07,14,57,14.70
2017,05,07,14,58,14.60
2017,05,07,14,59,14.60
2017,05,07,15,00,14.60
2017,05,07,15,01,14.70
2017,05,07,15,02,14.80
2017,05,07,15,03,14.90
2017,05,07,15,04,14.90
2017,05,07,15,05,15.00
2017,05,07,15,06,15.10
2017,05,07,15,07,15.10
2017,05,07,15,08,15.20
2017,05,07,15,09,15.30
2017,05,07,15,10,15.30
2017,05,07,15,11,15.40
2017,05,07,15,12,15.50
2017,05,07,15,13,15.50
2017,05,07,15,14,15.60
2017,05,07,15,15,15.60
2017,05,07,15,16,15.50
2017,05,07,15,17,15.40
2017,05,07,15,18,15.30
2017,05,07,15,19,15.20
2017,05,07,15,20,15.20
2017,05,07,15,21,15.20
2017,05,07,15,22,15.30
2017,05,07,15,23,15.30
2017,05,07,15,24,15.30
2017,05,07,15,25,15.20
2017,05,07,15,26,15.20
2017,05,07,15,27,15.30
2017,05,07,15,28,15.30
2017,05,07,15,29,15.40
2017,05,07,15,30,15.40
2017,05,07,15,31,15.40
2017,05,07,15,32,15.40
2017,05,07,15,33,15.30
2017,05,07,15,34,15.30
2017,05,07,15,35,15.30
2017,05,07,15,36,15.30
2017,05,07,15,37,15.40
2017,05,07,15,38,15.50
2017,05,07,15,39,15.50
2017,05,07,15,40,15.50
2017,05,07,15,41,15.50
2017,05,07,15,42,15.50
2017,05,07,15,43,15.50
2017,05,07,15,44,15.50
2017,05,07,15,45,15.40
2017,05,07,15,46,15.40
2017,05,07,15,47,15.50
2017,05,07,15,48,15.50
2017,05,07,15,49,15.50
2017,05,07,15,50,15.50
2017,05,07,15,51,15.50
2017,05,07,15,52,15.50
2017,05,07,15,53,15.40
2017,05,07,15,54,15.40
2017,05,07,15,55,15.40
2017,05,07,15,56,15.40
2017,05,07,15,57,15.40
2017,05,07,15,58,15.40
2017,05,07,15,59,15.40
2017,05,07,16,00,15.40
2017,05,07,16,01,15.30
2017,05,07,16,02,15.30
2017,05,07,16,03,15.30
2017,05,07,16,04,15.30
2017,05,07,16,05,15.30
2017,05,07,16,06,15.30
2017,05,07,16,07,15.30
2017,05,07,16,08,15.30
2017,05,07,16,09,15.20
2017,05,07,16,10,15.20
2017,05,07,16,11,15.10
2017,05,07,16,12,15.10
2017,05,07,16,13,15.10
2017,05,07,16,14,15.10
2017,05,07,16,15,15.00
2017,05,07,16,16,15.00
2017,05,07,16,17,15.00
2017,05,07,16,18,14.90
2017,05,07,16,19,14.90
2017,05,07,16,20,14.80
2017,05,07,16,21,14.80
2017,05,07,16,22,14.80
2017,05,07,16,23,14.80
2017,05,07,16,24,14.80
2017,05,07,16,25,14.80
2017,05,07,16,26,14.80
2017,05,07,16,27,14.80
2017,05,07,16,28,14.80
2017,05,07,16,29,14.80
2017,05,07,16,30,14.80
2017,05,07,16,31,14.80
2017,05,07,16,32,14.80
2017,05,07,16,33,14.80
2017,05,07,16,34,14.80
2017,05,07,16,35,14.80
2017,05,07,16,36,14.80
2017,05,07,16,37,14.70
2017,05,07,16,38,14.50
2017,05,07,16,39,14.40
2017,05,07,16,40,14.20
2017,05,07,16,41,14.00
2017,05,07,16,42,13.90
2017,05,07,16,43,13.80
2017,05,07,16,44,13.70
2017,05,07,16,45,13.70
2017,05,07,16,46,13.50
2017,05,07,16,47,13.40
2017,05,07,16,48,13.30
2017,05,07,16,49,13.20
2017,05,07,16,50,13.10
2017,05,07,16,51,13.00
2017,05,07,16,52,13.00
2017,05,07,16,53,12.90
2017,05,07,16,54,12.90
2017,05,07,16,55,12.80
2017,05,07,16,56,12.80
2017,05,07,16,57,12.80
2017,05,07,16,58,12.70
2017,05,07,16,59,12.70
2017,05,07,17,00,12.60
2017,05,07,17,01,12.60
2017,05,07,17,02,12.50
2017,05,07,17,03,12.50
2017,05,07,17,04,12.40
2017,05,07,17,05,12.40
2017,05,07,17,06,12.50
2017,05,07,17,07,12.50
2017,05,07,17,08,12.50
2017,05,07,17,09,12.50
2017,05,07,17,10,12.60
2017,05,07,17,11,12.60
2017,05,07,17,12,12.60
2017,05,07,17,13,12.70
2017,05,07,17,14,12.70
2017,05,07,17,15,12.80
2017,05,07,17,16,12.80
2017,05,07,17,17,12.90
2017,05,07,17,18,12.90
2017,05,07,17,19,12.90
2017,05,07,17,20,12.90
2017,05,07,17,21,12.90
2017,05,07,17,22,12.90
2017,05,07,17,23,12.90
2017,05,07,17,24,12.80
2017,05,07,17,25,12.80
2017,05,07,17,26,12.80
2017,05,07,17,27,12.80
2017,05,07,17,28,12.70
2017,05,07,17,29,12.80
2017,05,07,17,30,12.70
2017,05,07,17,31,12.80
2017,05,07,17,32,12.80
2017,05,07,17,33,12.80
2017,05,07,17,34,12.80
2017,05,07,17,35,12.80
2017,05,07,17,36,12.70
2017,05,07,17,37,12.70
2017,05,07,17,38,12.70
2017,05,07,17,39,12.70
2017,05,07,17,40,12.70
2017,05,07,17,41,12.70
2017,05,07,17,42,12.80
2017,05,07,17,43,12.80
2017,05,07,17,44,12.80
2017,05,07,17,45,12.80
2017,05,07,17,46,12.80